Date,TemperatureHighF,TemperatureAvgF,TemperatureLowF,DewpointHighF,DewpointAvgF,DewpointLowF,HumidityHigh,HumidityAvg,HumidityLow,PressureMaxIn,PressureMinIn,WindSpeedMaxMPH,WindSpeedAvgMPH,GustSpeedMaxMPH,PrecipitationSumIn
2013-1-1,44.7,40.4,36.2,41.5,38.0,32.6,96,91,83,30.33,30.10,17,5,18,0.01
2013-1-2,40.0,34.7,25.2,33.1,29.5,22.7,92,82,63,30.39,30.32,12,3,13,0.00
2013-1-3,48.7,35.6,24.4,34.0,29.1,21.9,93,78,52,30.54,30.39,15,2,18,0.00
2013-1-4,48.6,41.2,33.1,37.7,31.6,27.0,88,70,44,30.59,30.42,6,1,7,0.00
2013-1-5,53.4,42.6,31.2,41.0,36.4,28.3,90,79,60,30.44,30.29,15,2,17,0.01
2013-1-6,56.7,39.4,26.5,36.0,29.0,23.9,95,70,32,30.44,30.35,15,3,21,0.00
2013-1-7,52.9,40.6,26.7,35.3,29.4,22.0,87,66,44,30.45,30.20,14,3,15,0.00
2013-1-8,50.2,45.4,40.7,50.0,41.6,32.2,100,87,68,30.22,30.07,19,4,24,0.43
2013-1-9,55.1,53.4,50.1,54.1,52.4,49.3,97,97,95,30.25,30.09,22,7,23,0.93
2013-1-10,65.6,56.2,44.9,60.8,51.7,42.6,98,86,63,30.11,29.92,23,8,26,0.01
2013-1-11,73.5,56.4,41.9,53.5,47.8,40.3,95,76,38,30.02,29.85,22,4,27,0.01
2013-1-12,70.5,54.8,37.0,68.4,52.7,34.7,97,92,83,29.94,29.68,24,6,28,0.84
2013-1-13,43.1,35.1,28.1,35.0,29.0,22.7,91,79,61,30.37,29.93,20,9,23,0.00
2013-1-14,46.4,34.2,25.9,31.5,25.4,20.9,85,71,51,30.47,30.30,15,5,17,0.00
2013-1-15,36.5,32.6,28.7,31.6,27.8,21.4,93,83,71,30.35,30.21,16,5,18,0.07
2013-1-16,46.7,34.2,26.2,26.5,23.6,20.3,84,67,42,30.35,30.22,11,3,14,0.05
2013-1-17,58.0,42.5,29.2,38.5,31.2,23.8,85,66,42,30.57,30.31,18,4,20,0.00
2013-1-18,59.4,42.4,26.9,39.0,32.3,24.2,93,70,40,30.60,30.35,15,2,15,0.00
2013-1-19,63.5,46.6,31.4,44.4,37.4,28.4,89,72,46,30.35,30.22,18,4,20,0.00
2013-1-20,68.3,48.8,33.8,50.4,41.2,31.7,95,77,46,30.31,30.15,12,1,15,0.00
2013-1-21,57.9,46.3,35.5,43.2,37.9,31.1,93,74,52,30.35,30.19,15,4,15,0.00
2013-1-22,56.7,42.8,31.2,41.0,33.5,26.9,85,71,51,30.41,30.29,13,4,14,0.00
2013-1-23,71.6,52.7,36.1,56.2,44.9,31.7,90,76,57,30.36,30.20,17,4,19,0.00
2013-1-24,60.2,50.3,44.7,57.6,48.2,40.8,96,92,86,30.27,30.13,15,5,19,0.00
2013-1-25,58.1,48.1,41.8,48.1,43.7,39.8,95,85,67,30.26,30.09,14,4,16,0.00
2013-1-26,47.7,45.2,43.6,44.8,43.7,42.3,97,95,89,30.32,30.21,15,6,17,0.01
2013-1-27,71.5,56.9,44.9,64.1,54.5,44.1,98,92,75,30.21,30.01,16,6,18,0.00
2013-1-28,73.8,69.2,65.0,66.8,64.0,61.9,91,84,73,30.08,29.91,22,8,25,0.01
2013-1-29,74.8,64.9,51.6,67.4,61.0,43.7,95,87,62,29.92,29.51,31,10,33,0.30
2013-1-30,52.2,43.1,29.8,43.7,32.5,24.5,85,67,45,30.19,29.69,25,7,33,0.02
2013-1-31,66.0,45.9,27.7,34.7,28.2,22.9,88,55,20,30.41,30.16,22,7,26,0.00
2013-2-1,53.6,41.1,28.5,30.6,26.3,20.9,75,57,36,30.49,30.26,16,6,17,0.00
2013-2-2,66.0,47.3,32.9,45.8,34.5,28.2,84,64,33,30.37,30.23,13,3,15,0.00
2013-2-3,67.3,51.8,34.9,39.3,34.0,29.1,81,54,25,30.37,30.06,10,2,11,0.00
2013-2-4,62.5,53.3,47.8,57.5,47.8,36.8,96,82,61,30.06,29.88,12,3,16,0.14
2013-2-5,62.6,54.3,48.7,57.9,52.8,47.6,100,95,84,30.09,29.97,8,1,9,0.01
2013-2-6,57.1,53.1,48.5,56.1,52.1,47.4,98,96,93,30.13,30.00,15,5,21,0.27
2013-2-7,66.8,57.9,52.4,60.7,55.8,49.3,99,93,80,30.10,29.89,24,5,26,0.13
2013-2-8,62.1,51.2,42.2,49.3,40.9,34.7,91,70,38,30.31,30.10,17,6,17,0.00
2013-2-9,51.7,43.8,39.5,50.5,40.9,37.0,96,89,80,30.26,29.85,18,9,21,0.13
2013-2-10,65.3,55.7,39.9,57.2,43.5,33.9,98,68,33,30.09,29.74,18,6,19,0.67
2013-2-11,57.1,48.5,40.6,41.6,37.2,34.2,86,66,44,30.23,30.09,11,3,14,0.00
2013-2-12,45.2,43.6,41.4,43.8,41.5,36.9,96,92,82,30.14,29.91,18,4,22,0.55
2013-2-13,53.1,43.2,37.6,42.1,38.4,34.6,94,84,62,30.20,30.03,15,5,17,0.00
2013-2-14,66.3,48.0,31.3,44.8,36.1,29.7,96,69,29,30.19,30.08,15,3,17,0.01
2013-2-15,51.9,44.3,30.4,39.8,30.2,21.2,88,60,34,30.43,30.19,19,7,21,0.04
2013-2-16,50.1,39.8,32.5,33.1,27.4,20.9,89,64,34,30.47,30.24,15,4,21,0.00
2013-2-17,70.2,51.1,31.5,43.8,33.9,26.1,83,56,25,30.25,30.00,27,7,28,0.00
2013-2-18,75.0,59.2,47.9,58.6,46.6,33.2,81,65,35,30.16,29.75,33,11,37,0.00
2013-2-19,59.8,47.9,35.9,35.4,29.0,25.6,70,50,27,30.40,30.16,12,3,14,0.00
2013-2-20,47.7,39.2,35.2,38.7,34.4,27.9,92,83,46,30.35,29.96,23,8,24,0.42
2013-2-21,52.7,41.3,35.6,47.7,38.6,31.5,96,90,82,30.00,29.75,27,6,27,0.13
2013-2-22,48.2,39.1,31.4,37.7,30.8,26.5,96,73,51,30.21,29.98,15,5,16,0.00
2013-2-23,53.2,39.8,28.8,35.8,31.3,24.9,92,73,49,30.15,30.00,9,2,10,0.00
2013-2-24,65.1,49.3,30.8,45.5,38.5,27.7,91,69,41,30.06,29.74,17,6,19,0.00
2013-2-25,56.9,48.9,39.2,53.4,42.5,35.3,95,79,64,29.75,29.45,22,7,26,0.62
2013-2-26,56.1,43.9,35.1,39.1,34.7,29.5,86,71,45,29.98,29.59,24,8,29,0.00
2013-2-27,55.3,43.2,31.2,37.7,31.9,27.6,95,67,44,30.24,29.96,20,6,25,0.00
2013-2-28,55.2,42.8,30.8,34.6,30.8,25.9,92,64,41,30.31,30.20,15,5,18,0.00
2013-3-1,52.9,41.0,28.0,35.1,30.3,24.9,90,67,45,30.35,30.23,18,6,20,0.00
2013-3-2,50.0,37.2,28.2,27.6,24.4,19.3,83,61,37,30.46,30.30,20,5,24,0.00
2013-3-3,67.5,48.5,26.9,40.1,32.0,22.6,87,56,31,30.30,29.88,22,6,24,0.00
2013-3-4,78.5,63.1,53.1,53.6,49.0,40.2,79,62,38,29.87,29.65,27,12,32,0.00
2013-3-5,57.7,48.0,37.1,45.6,30.6,23.2,73,53,31,30.42,29.82,31,10,37,0.00
2013-3-6,59.8,44.5,32.9,34.0,26.3,20.3,71,52,23,30.51,30.28,11,3,13,0.00
2013-3-7,67.9,51.3,34.8,38.5,32.7,25.7,79,51,27,30.37,30.20,16,5,18,0.00
2013-3-8,64.7,56.4,44.4,43.4,39.1,34.1,75,54,40,30.31,30.08,17,6,17,0.00
2013-3-9,68.2,62.2,55.2,61.2,55.9,43.2,91,80,55,30.08,29.76,22,7,27,0.01
2013-3-10,65.1,49.8,38.9,60.4,42.5,30.3,96,76,60,30.11,29.76,25,8,25,0.67
2013-3-11,54.1,41.2,30.4,36.0,29.9,25.2,88,67,33,30.15,30.06,20,4,22,0.00
2013-3-12,65.7,48.4,31.2,40.2,32.7,25.4,92,60,26,30.38,30.12,9,1,11,0.00
2013-3-13,66.0,55.1,42.1,39.7,34.3,28.8,81,49,29,30.54,30.38,10,2,10,0.00
2013-3-14,74.2,63.2,40.7,48.5,44.2,33.4,77,52,36,30.42,30.23,20,6,24,0.00
2013-3-15,79.1,64.1,49.5,56.8,49.5,42.7,89,62,35,30.23,29.92,26,9,29,0.00
2013-3-16,80.0,67.4,55.3,59.8,54.8,49.7,87,65,46,29.93,29.76,22,9,26,0.00
2013-3-17,76.3,64.0,49.5,62.9,56.7,46.3,90,78,60,29.83,29.70,25,7,27,0.00
2013-3-18,68.2,56.0,44.3,55.8,47.4,37.5,94,75,48,30.09,29.69,17,6,22,0.02
2013-3-19,65.0,53.6,39.7,43.6,37.6,31.4,89,58,32,30.23,30.04,25,5,25,0.00
2013-3-20,65.0,52.7,39.7,37.0,33.2,28.6,73,50,27,30.37,30.11,16,4,19,0.00
2013-3-21,53.5,48.1,44.2,41.2,35.8,29.3,77,62,46,30.11,29.74,22,10,25,0.04
2013-3-22,46.8,44.8,41.7,45.2,43.2,38.9,96,94,74,29.92,29.72,21,6,21,0.01
2013-3-23,49.6,46.9,44.1,48.5,45.8,43.1,97,96,95,29.94,29.73,17,4,21,0.34
2013-3-24,50.1,43.3,37.3,47.8,33.1,24.7,96,68,49,30.23,29.80,26,11,31,0.01
2013-3-25,50.7,39.6,26.5,28.7,23.1,19.4,81,54,31,30.46,30.23,22,7,27,0.00
2013-3-26,53.7,38.5,21.8,29.4,24.7,17.4,85,61,33,30.57,30.40,12,2,17,0.00
2013-3-27,67.6,49.6,31.0,36.5,30.9,24.9,82,52,27,30.42,30.20,21,4,23,0.00
2013-3-28,71.4,59.5,45.3,56.7,48.8,34.5,84,68,52,30.32,30.17,17,4,18,0.00
2013-3-29,73.3,66.1,56.4,60.4,57.5,52.9,90,74,59,30.24,30.08,20,6,20,0.00
2013-3-30,71.9,64.4,58.5,66.1,60.8,56.8,96,88,79,30.11,29.95,15,3,17,1.06
2013-3-31,72.6,63.1,54.8,62.0,57.4,48.4,97,83,57,30.03,29.88,25,2,30,0.76
2013-4-1,77.5,63.1,45.4,59.3,50.1,43.2,93,66,37,30.14,30.01,9,1,11,0.00
2013-4-2,64.8,57.1,45.3,55.8,49.7,0.0,93,77,64,30.15,30.02,23,7,26,0.02
2013-4-3,51.9,46.4,41.5,43.9,40.2,34.5,94,80,61,30.22,30.06,16,6,19,0.09
2013-4-4,52.0,45.4,41.4,45.6,41.9,38.1,94,87,77,30.23,30.16,14,4,17,0.09
2013-4-5,69.8,55.0,39.8,51.2,44.8,37.7,94,72,43,30.29,30.09,10,2,11,0.00
2013-4-6,76.0,63.4,49.7,58.5,52.0,46.6,92,69,43,30.10,29.90,24,7,27,0.00
2013-4-7,70.2,64.7,57.7,63.0,59.3,55.1,92,83,74,30.00,29.82,16,5,18,0.00
2013-4-8,77.5,69.4,59.6,65.3,61.9,56.6,91,78,63,29.86,29.75,20,7,24,0.00
2013-4-9,83.3,74.5,66.4,68.6,65.2,60.9,89,74,52,29.82,29.72,23,6,24,0.00
2013-4-10,73.8,51.4,39.5,68.6,48.5,36.2,94,90,82,29.99,29.75,24,8,27,0.31
2013-4-11,58.6,45.7,35.1,42.2,37.5,32.7,92,75,51,30.02,29.86,15,4,17,0.01
2013-4-12,73.3,55.5,36.6,52.3,45.1,34.8,96,71,40,30.06,29.92,10,2,13,0.00
2013-4-13,77.8,63.6,48.4,56.3,49.4,43.2,83,62,35,30.09,29.84,17,4,25,0.00
2013-4-14,80.6,66.6,53.8,63.3,56.7,48.4,88,72,47,29.84,29.61,20,6,23,0.00
2013-4-15,85.8,74.1,61.7,70.9,65.9,59.2,95,77,50,29.83,29.68,20,6,24,0.00
2013-4-16,86.6,77.1,70.3,72.8,68.4,65.9,88,75,57,29.97,29.82,18,6,21,0.00
2013-4-17,85.0,77.9,72.3,71.8,69.9,67.3,91,77,60,29.96,29.69,29,8,31,0.00
2013-4-18,75.7,55.2,42.1,68.7,48.6,34.1,94,79,62,30.17,29.62,28,11,31,0.65
2013-4-19,59.9,46.7,34.8,39.1,34.3,30.6,86,65,36,30.29,30.16,20,4,22,0.00
2013-4-20,70.3,55.1,37.7,49.1,41.4,34.0,89,63,38,30.29,30.11,17,3,18,0.00
2013-4-21,70.8,58.0,44.2,53.0,46.7,40.3,88,68,43,30.30,30.14,15,3,17,0.00
2013-4-22,76.3,62.1,45.8,57.8,51.0,41.9,88,69,45,30.20,29.93,18,4,22,0.00
2013-4-23,73.1,55.9,42.4,65.2,51.4,38.4,90,85,74,30.19,29.91,22,7,25,0.00
2013-4-24,63.1,49.2,39.9,46.0,40.1,36.6,92,73,43,30.37,30.19,22,5,26,0.02
2013-4-25,71.2,56.1,36.5,50.5,43.5,32.8,91,65,38,30.42,30.22,14,4,15,0.00
2013-4-26,73.2,62.9,53.0,65.9,55.5,44.1,90,77,64,30.27,30.06,14,4,16,0.00
2013-4-27,71.2,64.4,50.5,67.3,59.8,48.2,95,85,69,30.12,30.03,18,4,21,0.00
2013-4-28,80.1,62.6,43.9,63.8,55.2,42.6,97,79,51,30.09,29.93,7,1,9,0.01
2013-4-29,84.2,69.3,54.5,68.1,60.1,52.8,96,75,45,29.97,29.85,16,3,18,0.00
2013-4-30,83.8,70.2,54.0,68.0,61.6,51.6,95,76,50,29.90,29.80,16,3,18,0.00
2013-5-1,80.3,69.8,60.5,70.3,63.9,58.5,96,82,62,30.05,29.88,16,3,17,0.00
2013-5-2,66.1,54.4,40.3,62.5,50.2,37.3,92,86,77,30.30,30.02,23,8,28,0.02
2013-5-3,63.2,48.9,39.1,41.6,36.4,31.7,91,66,32,30.28,30.05,25,7,30,0.02
2013-5-4,63.6,50.9,39.6,42.1,37.1,30.7,85,62,31,30.08,29.95,22,4,27,0.00
2013-5-5,63.7,52.5,40.9,49.1,44.0,36.5,91,74,53,30.18,30.06,16,4,20,0.00
2013-5-6,76.6,60.5,43.1,59.0,51.7,40.2,94,75,47,30.15,30.01,13,3,16,0.00
2013-5-7,81.7,65.8,49.2,61.5,53.9,47.0,94,69,38,30.13,30.00,7,1,9,0.00
2013-5-8,83.4,69.7,53.8,65.0,58.8,50.5,91,70,49,30.07,29.94,18,3,27,0.00
2013-5-9,69.8,65.3,60.8,66.6,62.1,59.1,95,90,79,30.04,29.92,17,2,17,0.74
2013-5-10,80.5,69.4,61.5,69.1,63.6,59.2,96,83,59,30.08,29.93,9,1,10,0.00
2013-5-11,78.5,67.4,57.3,61.0,57.0,51.9,92,72,41,30.21,30.04,16,4,19,0.00
2013-5-12,75.8,63.1,47.5,55.0,47.3,41.0,84,59,34,30.31,30.19,11,2,16,0.00
2013-5-13,83.3,66.7,48.6,55.3,50.3,45.6,92,60,30,30.29,30.15,16,4,21,0.00
2013-5-14,85.7,72.8,59.3,66.3,57.0,51.2,86,60,31,30.20,30.04,20,6,20,0.00
2013-5-15,78.9,68.5,63.6,70.2,63.4,55.4,95,85,68,30.10,29.88,19,6,23,0.25
2013-5-16,68.5,65.1,62.4,66.9,63.9,61.3,97,96,93,29.94,29.80,17,2,22,1.53
2013-5-17,83.8,73.8,65.1,76.3,70.6,64.1,98,90,73,29.94,29.86,12,2,14,0.00
2013-5-18,89.0,78.6,70.2,78.0,72.8,69.1,97,83,61,29.97,29.83,17,4,20,0.00
2013-5-19,88.1,78.2,68.2,74.4,69.5,65.5,94,76,55,29.90,29.73,24,8,28,0.00
2013-5-20,86.6,78.0,71.2,75.6,71.0,66.2,90,80,65,29.90,29.73,22,8,26,0.00
2013-5-21,82.7,69.6,60.2,75.3,66.5,58.8,97,90,68,29.90,29.74,21,4,27,1.77
2013-5-22,83.4,69.0,56.9,69.6,63.1,55.8,98,83,50,30.00,29.87,8,0,8,0.01
2013-5-23,84.8,72.0,63.5,76.3,68.5,61.4,97,89,72,30.16,29.95,11,1,12,0.07
2013-5-24,82.1,74.1,68.2,74.5,69.2,66.0,95,85,73,30.23,30.08,15,3,17,0.00
2013-5-25,86.2,74.2,65.0,76.3,68.2,61.1,92,82,66,30.23,30.08,16,3,25,0.00
2013-5-26,79.8,73.3,67.9,73.1,69.3,65.7,95,88,72,30.16,30.01,22,4,23,0.02
2013-5-27,84.6,77.2,70.4,72.9,70.0,67.8,94,79,62,30.04,29.86,23,7,24,0.00
2013-5-28,85.1,76.7,69.5,72.1,68.7,66.6,92,77,59,29.96,29.84,21,7,25,0.00
2013-5-29,84.5,76.7,70.0,73.8,69.9,66.7,93,80,65,29.94,29.78,18,6,22,0.00
2013-5-30,85.6,78.7,73.1,75.7,72.4,69.3,88,81,70,29.86,29.74,25,9,27,0.00
2013-5-31,89.6,81.7,76.3,77.6,74.1,72.2,90,79,63,29.90,29.71,22,8,25,0.00
2013-6-1,80.5,76.5,71.0,76.8,72.7,69.3,95,88,79,29.99,29.77,19,4,27,0.17
2013-6-2,80.0,70.7,61.2,69.5,62.1,57.0,95,76,51,30.08,29.98,12,3,15,0.01
2013-6-3,85.3,71.8,57.5,69.4,63.5,55.2,94,77,55,30.05,29.90,13,2,14,0.00
2013-6-4,86.6,74.0,64.1,74.1,67.7,61.7,94,81,61,30.12,29.87,19,4,21,0.00
2013-6-5,89.3,78.0,67.9,77.0,71.1,65.5,94,80,55,30.03,29.83,20,2,20,0.00
2013-6-6,77.2,70.8,65.0,70.9,67.9,62.9,96,91,79,29.98,29.84,16,2,17,1.22
2013-6-7,83.2,69.4,59.8,66.5,61.3,56.9,94,78,47,30.01,29.92,11,2,13,0.01
2013-6-8,85.5,72.0,56.6,67.2,62.2,54.5,96,74,46,30.00,29.86,15,2,17,0.01
2013-6-9,88.8,75.1,66.0,75.4,69.1,63.0,96,83,57,29.97,29.90,12,2,14,0.72
2013-6-10,92.9,79.5,66.4,76.4,71.3,64.8,97,78,48,30.00,29.94,14,3,15,0.00
2013-6-11,91.8,81.2,68.7,77.3,73.0,66.9,96,77,55,30.07,29.97,17,5,19,0.00
2013-6-12,91.1,81.2,72.4,77.2,73.8,70.3,96,79,61,30.09,29.97,17,5,20,0.00
2013-6-13,95.2,83.0,71.1,77.6,73.4,69.4,96,75,48,30.07,29.92,15,3,17,0.00
2013-6-14,95.4,84.1,71.7,81.8,76.3,69.6,94,79,57,30.02,29.92,10,1,13,0.00
2013-6-15,90.4,80.3,73.7,77.5,72.7,70.0,93,79,60,30.06,29.94,13,3,14,0.08
2013-6-16,93.2,82.2,72.1,78.9,73.7,68.3,93,77,53,30.04,29.90,16,4,20,0.01
2013-6-17,85.8,76.3,68.1,76.2,71.6,66.3,97,86,69,30.06,29.91,27,2,39,0.81
2013-6-18,85.5,76.9,69.4,75.2,71.0,67.5,94,83,67,30.02,29.94,11,2,11,0.00
2013-6-19,88.8,78.2,67.5,75.2,71.6,66.0,97,81,60,30.06,29.95,11,2,15,0.00
2013-6-20,92.8,81.6,72.7,77.6,73.7,70.5,95,78,55,30.09,30.00,17,4,20,0.00
2013-6-21,92.6,82.2,72.4,76.9,72.9,68.3,95,75,47,30.12,30.02,15,3,18,0.00
2013-6-22,93.2,82.2,72.1,75.9,72.2,69.2,94,74,49,30.09,29.94,17,3,17,0.00
2013-6-23,92.6,82.6,72.9,75.1,72.6,70.2,94,74,51,30.05,29.94,18,5,21,0.00
2013-6-24,92.3,82.3,72.1,75.8,72.6,69.9,94,74,50,30.09,29.96,19,5,21,0.00
2013-6-25,92.6,83.0,74.6,75.7,73.0,70.9,91,73,53,30.05,29.88,21,6,23,0.00
2013-6-26,94.4,83.7,74.5,75.2,73.2,70.9,89,72,51,30.02,29.89,20,5,22,0.00
2013-6-27,98.2,84.0,73.0,75.6,72.9,70.3,94,72,45,30.03,29.89,15,3,17,0.00
2013-6-28,100.8,86.1,72.8,77.5,71.5,65.7,93,65,33,29.96,29.83,13,3,17,0.00
2013-6-29,95.0,82.8,69.2,70.9,65.6,59.5,86,60,32,29.91,29.81,16,4,19,0.00
2013-6-30,88.8,78.1,68.7,64.8,61.2,56.9,84,59,35,29.97,29.85,21,5,24,0.00
2013-7-1,89.0,76.1,62.9,65.1,61.6,58.1,87,63,39,30.04,29.95,14,4,19,0.00
2013-7-2,89.0,75.6,61.5,63.7,57.8,49.8,86,58,27,30.11,30.02,14,2,14,0.00
2013-7-3,90.6,74.7,58.9,65.2,57.8,52.4,90,60,30,30.11,30.00,9,1,12,0.00
2013-7-4,90.4,75.5,63.0,68.5,63.9,58.7,90,69,45,30.07,29.96,9,2,11,0.00
2013-7-5,94.0,79.1,62.8,69.8,64.8,60.2,93,65,40,30.06,29.93,12,3,14,0.00
2013-7-6,94.4,79.8,65.5,73.3,65.8,60.4,89,65,38,30.01,29.93,12,2,14,0.00
2013-7-7,95.1,82.6,68.4,74.8,69.7,64.1,92,67,42,30.06,29.97,13,2,16,0.00
2013-7-8,95.0,82.5,72.2,75.9,72.6,70.1,95,74,48,30.13,30.03,12,3,18,0.00
2013-7-9,97.2,83.6,72.7,75.2,71.1,67.1,91,68,41,30.15,30.01,16,4,18,0.00
2013-7-10,99.8,87.5,76.5,76.0,72.5,68.1,84,63,42,30.08,29.92,15,4,18,0.00
2013-7-11,98.9,80.2,72.7,76.8,72.8,68.8,95,80,44,30.02,29.92,21,3,29,0.60
2013-7-12,96.5,82.8,70.0,79.3,73.3,68.5,96,76,48,30.04,29.93,12,2,13,0.01
2013-7-13,93.8,80.7,67.9,71.6,65.4,61.3,86,62,38,30.06,29.93,10,2,14,0.00
2013-7-14,80.2,73.6,69.4,70.4,67.2,63.8,95,81,67,30.04,29.95,9,2,13,0.30
2013-7-15,79.5,73.2,69.4,74.4,70.3,67.9,96,91,78,30.16,29.99,14,2,21,0.23
2013-7-16,92.4,80.0,69.4,76.0,72.1,67.8,96,78,56,30.23,30.13,14,3,15,0.01
2013-7-17,94.0,83.0,73.5,76.3,72.5,69.3,93,73,49,30.28,30.16,16,3,18,0.00
2013-7-18,95.7,83.5,71.5,77.0,71.8,67.0,95,71,45,30.21,30.02,19,2,22,0.00
2013-7-19,89.5,77.3,70.8,76.5,72.1,68.8,95,85,64,30.09,29.98,16,2,20,0.00
2013-7-20,92.6,80.0,72.6,78.5,73.4,71.0,96,82,56,30.01,29.88,10,2,10,0.47
2013-7-21,94.0,81.8,71.6,77.9,73.9,70.0,96,78,56,29.97,29.87,18,4,21,0.00
2013-7-22,95.2,84.8,76.7,78.4,75.1,72.4,92,74,55,30.00,29.89,21,7,21,0.00
2013-7-23,96.2,84.9,76.2,79.6,75.7,71.5,89,75,55,30.00,29.83,18,6,21,0.00
2013-7-24,87.6,77.3,70.3,75.8,71.8,68.7,96,84,64,30.06,29.88,18,4,23,0.61
2013-7-25,92.6,80.3,65.5,76.5,71.5,63.6,96,77,50,30.10,30.00,12,2,15,0.00
2013-7-26,81.7,75.3,71.2,76.9,72.7,69.7,96,92,84,30.07,29.88,15,4,18,0.31
2013-7-27,89.0,77.1,69.9,74.3,70.1,66.7,96,81,53,30.05,29.95,10,3,14,0.01
2013-7-28,91.1,79.3,66.2,73.4,69.3,64.4,95,74,47,30.05,29.95,17,3,17,0.00
2013-7-29,94.5,83.4,72.9,77.4,73.3,69.8,92,73,52,30.06,29.98,17,4,23,0.00
2013-7-30,94.4,84.6,76.7,76.8,73.3,70.2,82,70,53,30.11,29.98,17,5,19,0.00
2013-7-31,97.8,86.3,77.3,78.7,73.8,67.4,84,67,50,30.09,29.94,13,3,15,0.00
2013-8-1,97.9,86.7,77.7,80.4,76.9,74.1,93,74,52,30.05,29.94,13,3,15,0.00
2013-8-2,100.2,87.4,76.3,77.5,74.3,71.4,92,68,42,29.99,29.89,16,4,17,0.00
2013-8-3,99.5,86.2,75.0,76.7,73.1,68.8,88,68,39,30.06,29.95,17,3,17,0.00
2013-8-4,99.0,86.4,73.7,76.3,73.5,71.0,94,68,42,30.11,29.97,15,3,16,0.00
2013-8-5,100.5,87.7,74.9,75.6,71.0,67.9,90,61,36,30.02,29.87,17,4,19,0.00
2013-8-6,101.5,88.5,77.3,74.9,71.6,68.2,80,59,37,29.94,29.82,18,5,20,0.00
2013-8-7,101.7,88.9,77.0,74.4,71.3,68.8,80,58,36,29.93,29.80,19,5,19,0.00
2013-8-8,101.4,88.0,75.4,76.5,72.0,68.7,82,61,39,29.93,29.80,15,4,16,0.00
2013-8-9,101.3,87.9,76.8,74.9,69.6,63.8,85,58,31,29.99,29.88,14,3,17,0.00
2013-8-10,99.7,86.3,73.4,77.1,73.0,68.8,88,67,41,30.06,29.96,13,2,14,0.00
2013-8-11,99.2,83.6,73.5,78.2,73.2,69.9,90,73,41,30.10,29.99,18,3,22,0.38
2013-8-12,98.3,84.2,74.0,76.4,73.3,70.7,93,72,42,30.08,29.94,17,4,21,0.00
2013-8-13,94.9,81.1,73.5,78.2,73.9,70.4,93,80,53,30.05,29.94,14,2,20,0.38
2013-8-14,88.1,78.3,69.8,74.5,70.3,63.5,95,78,56,30.08,29.98,15,4,20,0.00
2013-8-15,88.2,78.4,68.0,63.8,62.5,60.5,84,60,42,30.14,30.01,11,3,14,0.00
2013-8-16,85.6,73.1,63.5,65.1,62.0,58.8,89,70,47,30.14,30.03,15,3,16,0.00
2013-8-17,90.0,73.9,59.5,64.3,60.8,57.2,93,67,39,30.14,30.02,13,3,15,0.00
2013-8-18,92.7,77.7,63.6,70.9,63.4,57.9,94,65,33,30.14,30.03,12,2,14,0.00
2013-8-19,94.9,79.8,66.8,71.0,64.4,58.4,93,63,31,30.14,29.99,12,3,14,0.00
2013-8-20,96.5,80.7,64.9,69.8,63.6,60.1,91,60,32,30.09,29.98,10,1,11,0.00
2013-8-21,98.5,82.9,67.5,71.6,65.2,61.4,90,59,31,30.13,30.01,12,2,24,0.00
2013-8-22,98.3,86.1,74.8,73.9,69.6,65.5,83,60,38,30.11,29.96,14,2,14,0.00
2013-8-23,100.9,86.1,72.4,74.6,69.9,66.8,88,61,35,30.06,29.94,12,2,13,0.00
2013-8-24,99.3,86.2,72.6,75.7,70.4,66.6,89,62,35,30.12,30.01,17,3,18,0.00
2013-8-25,98.4,85.1,73.1,74.8,69.7,67.0,90,63,38,30.19,30.09,25,4,25,0.00
2013-8-26,98.1,84.0,71.1,73.6,67.8,62.5,89,61,32,30.22,30.08,17,4,19,0.00
2013-8-27,96.1,82.2,71.2,73.3,69.1,65.4,90,67,41,30.17,30.03,14,2,15,0.00
2013-8-28,99.4,84.6,70.8,73.4,67.7,64.9,89,60,35,30.13,30.00,11,2,13,0.00
2013-8-29,103.0,86.5,71.4,72.0,67.6,63.9,86,57,29,30.10,29.97,11,1,12,0.00
2013-8-30,103.2,87.2,70.9,70.6,67.4,64.8,84,55,30,30.04,29.89,10,2,12,0.00
2013-8-31,103.3,85.2,73.5,76.0,70.5,65.4,83,64,32,29.95,29.82,17,2,21,0.02
2013-9-1,103.5,86.8,72.7,74.8,71.0,67.3,90,63,32,29.91,29.79,13,3,13,0.00
2013-9-2,96.5,83.8,73.6,75.8,73.0,70.5,94,72,45,30.01,29.86,17,4,17,0.11
2013-9-3,99.2,85.2,71.7,76.4,70.3,65.5,87,64,38,30.01,29.90,10,2,12,0.00
2013-9-4,98.5,84.7,72.3,70.5,67.0,62.9,84,58,36,30.11,29.99,15,4,19,0.00
2013-9-5,99.2,82.9,68.3,69.6,63.3,60.1,79,54,30,30.16,30.05,12,2,13,0.00
2013-9-6,99.8,81.7,68.2,70.4,65.0,60.0,85,60,31,30.13,30.00,13,2,14,0.00
2013-9-7,100.0,84.8,70.1,73.0,65.5,60.3,82,55,30,30.07,29.93,16,3,17,0.00
2013-9-8,100.0,84.5,68.1,71.4,66.2,61.8,90,59,30,30.03,29.90,13,3,18,0.00
2013-9-11,97.3,86.3,73.7,71.7,68.5,65.5,82,57,39,30.15,30.03,14,2,17,0.00
2013-9-12,98.4,83.0,70.1,72.7,69.1,66.2,90,66,39,30.11,29.95,12,2,15,0.00
2013-9-13,96.0,82.2,72.6,72.6,69.7,61.9,85,68,44,30.01,29.89,20,4,23,0.00
2013-9-14,90.7,78.4,67.4,62.5,58.1,53.4,69,51,36,30.06,29.95,20,6,25,0.00
2013-9-15,95.4,79.1,63.3,67.8,60.3,51.9,71,54,39,30.10,30.00,12,3,15,0.00
2013-9-16,98.7,82.9,68.0,71.2,64.2,59.9,82,56,33,30.14,30.01,16,2,17,0.00
2013-9-17,94.0,81.3,69.9,70.7,66.0,59.0,78,61,44,30.13,29.99,15,3,18,0.02
2013-9-18,96.6,84.2,75.0,72.8,70.1,66.2,86,65,40,30.06,29.92,16,4,20,0.00
2013-9-19,93.3,80.9,71.9,74.9,70.8,66.6,95,73,48,30.04,29.89,26,3,29,0.49
2013-9-20,74.1,72.0,68.7,72.6,70.4,64.7,97,95,87,29.97,29.86,12,4,15,1.06
2013-9-21,85.1,70.2,58.5,64.2,56.4,50.1,90,66,32,30.02,29.90,14,5,16,0.00
2013-9-22,83.4,68.0,53.7,60.0,54.2,50.1,90,65,34,30.00,29.86,13,3,14,0.00
2013-9-23,84.7,70.0,54.3,60.5,56.3,51.1,91,65,37,29.94,29.81,13,3,14,0.00
2013-9-24,93.2,75.0,60.8,66.8,56.2,47.1,90,58,21,29.94,29.84,17,4,20,0.00
2013-9-25,91.9,72.1,54.4,63.2,55.9,50.7,91,62,27,29.94,29.82,12,2,14,0.00
2013-9-26,94.4,76.8,59.5,64.8,60.4,55.7,91,61,32,29.95,29.85,18,4,21,0.00
2013-9-27,91.3,78.0,63.8,67.3,64.2,59.2,90,65,43,30.01,29.91,16,5,20,0.00
2013-9-28,83.6,75.1,66.8,76.6,68.8,64.2,96,82,62,30.05,29.94,19,5,21,1.23
2013-9-29,83.4,71.3,65.0,71.4,65.8,60.9,97,84,53,30.05,29.93,8,2,9,0.01
2013-9-30,85.0,73.4,61.8,70.4,65.7,59.2,94,79,53,29.94,29.86,10,2,12,0.00
2013-10-1,86.5,76.4,69.8,75.4,72.1,68.5,97,87,65,30.01,29.90,15,4,16,0.00
2013-10-2,88.3,78.2,71.4,74.7,71.6,69.8,96,81,60,30.05,29.93,15,5,17,0.00
2013-10-3,89.1,78.2,69.8,74.9,71.6,67.7,95,81,60,29.99,29.88,17,4,18,0.00
2013-10-4,88.7,77.7,70.3,74.3,70.3,68.2,96,80,54,29.97,29.89,18,4,20,0.00
2013-10-5,82.7,65.4,52.0,75.2,61.6,49.2,96,88,71,30.13,29.93,22,6,23,0.23
2013-10-6,72.2,59.2,45.9,51.0,47.5,43.8,95,69,37,30.15,30.04,17,4,23,0.01
2013-10-7,78.4,61.7,49.0,48.8,44.7,37.0,87,59,25,30.19,30.10,16,4,18,0.00
2013-10-8,77.0,63.0,49.7,56.0,51.1,45.3,89,68,43,30.18,30.07,10,2,11,0.00
2013-10-9,81.4,64.3,48.3,59.9,54.2,45.5,92,72,43,30.17,30.05,15,2,15,0.00
2013-10-10,82.7,66.8,51.2,64.2,57.1,48.7,94,74,45,30.14,29.96,15,3,20,0.00
2013-10-11,83.6,72.2,58.6,71.2,65.4,56.3,95,80,64,30.02,29.89,18,5,23,0.00
2013-10-12,87.7,73.3,65.1,76.7,69.4,63.1,95,88,69,30.12,29.94,17,2,19,0.92
2013-10-13,77.3,71.1,67.2,70.9,67.8,65.6,96,90,77,30.27,30.12,14,4,16,0.00
2013-10-14,70.5,67.7,64.5,69.6,65.6,61.0,97,93,86,30.20,29.99,14,6,14,0.12
2013-10-15,76.3,66.7,55.8,73.1,65.4,54.6,97,96,84,30.08,29.95,25,6,25,0.88
2013-10-16,57.6,55.0,53.2,56.8,54.0,52.2,100,96,96,30.13,30.02,16,5,18,0.21
2013-10-17,70.8,56.6,46.4,54.7,49.9,45.0,97,80,49,30.17,30.04,9,2,11,0.01
2013-10-18,70.1,58.1,46.1,59.0,53.2,44.2,96,85,62,30.10,29.97,15,2,18,0.02
2013-10-19,64.5,51.4,42.4,49.5,43.0,38.7,92,75,43,30.23,30.09,18,5,21,0.00
2013-10-20,71.0,60.3,42.0,49.6,47.8,38.4,88,66,43,30.12,29.96,15,3,16,0.01
2013-10-21,66.8,57.2,50.0,61.4,54.0,46.3,94,89,79,30.14,30.00,17,4,19,0.00
2013-10-22,74.8,57.5,40.9,51.3,46.3,39.3,95,70,37,30.21,30.04,12,2,16,0.01
2013-10-23,77.3,60.7,45.6,54.8,49.8,42.6,93,70,40,30.19,30.08,10,2,13,0.00
2013-10-24,76.6,61.1,47.4,58.5,50.2,44.2,92,70,42,30.36,30.08,13,4,14,0.00
2013-10-25,62.9,53.2,45.9,45.2,41.4,35.3,84,66,46,30.52,30.31,17,6,20,0.00
2013-10-26,59.4,52.6,45.4,58.2,50.4,41.7,97,92,83,30.32,30.11,16,3,20,1.82
2013-10-27,68.6,62.9,57.5,59.8,58.3,56.3,97,85,71,30.16,30.06,8,2,10,0.01
2013-10-28,73.3,64.9,56.9,66.6,61.4,54.7,96,89,78,30.19,30.08,13,4,14,0.00
2013-10-29,78.4,70.8,64.8,70.4,66.8,62.7,96,88,74,30.16,30.06,18,5,19,0.00
2013-10-30,71.2,67.3,63.9,68.8,65.0,61.3,97,92,76,30.09,29.82,26,6,34,0.31
2013-10-31,76.9,65.4,49.9,70.3,56.6,44.8,98,77,33,29.92,29.69,25,5,28,0.05
2013-11-1,78.1,60.8,42.9,56.5,47.5,40.7,95,66,28,30.10,29.88,14,2,20,0.01
2013-11-2,64.4,53.3,40.0,46.2,41.0,36.3,92,65,38,30.30,30.10,20,5,21,0.00
2013-11-3,65.3,51.8,35.4,48.4,42.8,32.8,92,73,49,30.31,30.10,15,3,18,0.01
2013-11-4,57.7,55.0,52.1,56.9,52.4,46.6,97,91,78,30.19,30.11,11,4,13,0.32
2013-11-5,67.4,62.7,57.7,66.8,61.8,56.9,98,97,94,30.17,30.01,14,4,15,1.36
2013-11-6,69.3,53.4,39.1,68.3,50.7,37.1,98,90,79,30.41,30.00,20,6,24,0.35
2013-11-7,62.3,48.4,37.3,47.0,41.4,35.5,95,79,50,30.54,30.41,9,2,10,0.00
2013-11-8,68.0,53.5,37.6,50.8,44.5,35.8,96,74,37,30.43,30.21,15,2,15,0.01
2013-11-9,62.2,56.1,51.4,53.0,50.2,48.5,93,81,65,30.32,30.21,12,3,14,0.05
2013-11-10,69.6,57.6,48.4,52.8,49.4,45.3,92,76,49,30.42,30.31,9,1,11,0.00
2013-11-11,73.0,56.8,44.8,56.6,50.1,43.2,96,80,54,30.34,30.23,9,1,9,0.00
2013-11-12,58.8,46.9,30.0,55.3,36.2,24.9,94,68,42,30.74,30.33,23,9,27,0.00
2013-11-13,51.6,37.0,27.0,28.9,25.2,22.6,87,66,33,30.76,30.45,13,2,15,0.00
2013-11-14,57.7,50.4,27.7,40.3,35.2,23.2,84,57,39,30.45,30.12,13,4,13,0.00
2013-11-15,65.2,54.8,48.0,57.1,50.3,40.3,97,85,68,30.12,29.94,10,3,11,0.02
2013-11-16,74.5,67.2,56.7,70.3,64.1,55.6,97,90,76,29.94,29.75,21,6,26,0.01
2013-11-17,84.3,73.2,55.7,71.3,59.2,40.0,88,64,37,30.06,29.73,23,7,27,0.00
2013-11-18,70.9,58.3,46.9,42.8,37.6,31.9,70,48,25,30.26,30.06,10,2,11,0.00
2013-11-19,62.2,54.0,49.4,42.3,36.0,27.8,71,52,31,30.28,30.12,19,7,24,0.00
2013-11-20,63.6,56.2,42.5,47.3,40.9,34.7,74,57,39,30.14,30.00,16,5,18,0.00
2013-11-21,72.8,63.7,50.2,68.1,58.2,44.7,96,83,55,30.19,30.03,25,4,27,0.59
2013-11-22,50.4,40.4,38.1,48.7,38.9,36.8,96,94,91,30.48,30.19,22,9,27,0.58
2013-11-23,46.6,40.9,34.2,41.5,35.8,28.0,96,83,62,30.61,30.47,18,9,18,0.05
2013-11-24,37.2,34.0,30.6,28.9,26.0,19.5,84,73,53,30.69,30.42,13,5,15,0.02
2013-11-25,36.3,34.0,31.9,35.0,32.0,26.7,95,93,76,30.42,30.21,15,4,16,0.30
2013-11-26,51.2,40.8,34.0,39.1,33.3,25.2,95,76,56,30.40,30.15,35,9,35,0.00
2013-11-27,44.6,33.5,24.1,25.7,22.2,19.3,86,65,37,30.52,30.39,13,3,16,0.00
2013-11-28,51.2,34.3,22.3,33.3,25.8,19.3,92,73,41,30.55,30.43,11,2,14,0.00
2013-11-29,55.9,39.4,24.7,38.5,31.0,22.1,92,74,46,30.62,30.44,11,1,11,0.00
2013-11-30,65.5,50.1,34.4,50.9,42.4,30.3,92,76,55,30.44,30.22,20,4,22,0.00
2013-12-1,66.6,56.9,46.8,58.4,52.9,44.2,95,87,73,30.22,29.91,16,3,16,0.00
2013-12-2,54.4,50.4,42.7,53.5,49.5,41.9,97,96,92,29.91,29.73,7,1,8,0.01
2013-12-3,69.1,51.2,42.2,59.5,48.8,41.4,99,93,55,29.73,29.58,10,2,11,0.01
2013-12-4,77.2,59.1,45.2,62.6,52.0,39.2,98,79,55,29.92,29.64,16,5,17,0.02
2013-12-5,45.6,35.4,32.0,39.8,31.3,27.3,95,86,72,30.24,29.92,23,6,23,0.20
2013-12-6,33.5,29.6,25.4,32.2,27.9,23.4,95,93,91,30.55,30.14,0,0,0,1.16
2013-12-7,32.0,31.0,29.3,30.4,28.8,26.7,94,91,86,30.58,30.31,0,0,0,0.00
2013-12-8,36.2,32.5,28.7,35.2,31.2,26.4,96,95,89,30.32,30.13,7,1,9,0.01
2013-12-9,35.1,33.7,32.6,33.0,31.9,30.6,96,93,91,30.35,30.22,11,5,13,0.00
2013-12-10,40.7,31.8,23.0,31.4,26.6,21.0,93,82,67,30.57,30.43,6,2,9,0.00
2013-12-11,45.0,31.9,20.9,36.8,28.1,19.2,95,86,68,30.66,30.42,11,3,12,0.01
2013-12-12,47.9,39.0,26.0,31.7,28.6,23.7,91,67,49,30.67,30.38,6,1,8,0.00
2013-12-13,40.6,38.4,35.8,39.8,35.4,29.9,97,89,74,30.38,29.90,10,4,12,0.36
2013-12-14,44.6,39.2,29.9,43.2,36.7,27.2,97,91,81,30.36,29.89,18,6,22,0.37
2013-12-15,55.8,39.0,26.9,39.3,31.9,24.6,92,77,50,30.41,30.30,8,2,10,0.00
2013-12-16,64.5,45.1,31.5,42.1,35.2,28.9,92,71,37,30.31,30.22,12,3,14,0.00
2013-12-17,69.5,47.0,30.6,45.5,37.2,27.8,92,72,37,30.36,30.27,6,1,7,0.00
2013-12-18,68.1,47.0,33.6,48.5,38.4,30.7,96,75,41,30.34,30.15,17,3,21,0.00
2013-12-19,70.0,65.6,63.0,63.0,60.2,58.3,88,83,69,29.85,29.82,20,8,22,0.00
2013-12-20,70.6,58.7,37.4,65.9,55.5,36.3,96,89,74,29.92,29.76,18,6,22,0.00
2013-12-21,53.3,45.2,36.2,52.5,44.2,34.9,98,97,95,29.86,29.57,16,4,23,0.21
2013-12-22,44.5,35.5,30.2,43.7,31.9,26.1,100,87,80,30.46,29.86,18,8,19,0.21
2013-12-23,42.3,31.0,25.3,31.5,26.7,22.8,91,84,65,30.64,30.44,8,2,10,0.00
2013-12-24,48.6,35.5,22.9,37.5,30.5,20.7,93,83,63,30.63,30.38,12,4,14,0.00
2013-12-25,51.7,39.1,30.5,41.0,34.7,28.8,94,85,65,30.46,30.37,10,3,21,0.00
2013-12-26,54.2,38.6,26.4,41.0,33.3,24.6,100,82,58,30.52,30.40,10,1,11,0.01
2013-12-27,57.1,40.8,29.4,43.4,34.6,27.6,94,80,50,30.53,30.38,9,1,9,0.00
2013-12-28,59.1,46.1,36.3,44.3,38.9,33.1,93,77,52,30.38,30.05,14,2,15,0.00
2013-12-29,56.7,41.6,31.2,43.7,34.0,24.2,90,75,61,30.31,30.02,21,6,21,0.00
2013-12-30,41.9,32.6,26.9,28.4,25.2,21.9,90,75,54,30.49,30.30,12,3,14,0.00
2013-12-31,54.9,37.4,22.7,33.0,27.6,19.0,88,70,41,30.53,30.29,11,2,13,0.01
2014-1-1,65.4,45.1,29.1,49.8,38.0,26.0,94,78,56,30.30,29.95,25,8,31,0.00
2014-1-2,40.6,30.0,22.8,26.7,20.7,17.4,86,69,47,30.55,30.20,25,7,27,0.00